AA0FC Weather Reports


time (UTC)temp
C
wind
direction
speed
KPH
gust
KPH
rain 1hr
cm
rain 24hr
cm
rain mn
cm
humidity
%
barometer
mb
20260906223142 32 6 6.4 14.5 0.00 0.00 0.00 33 1015.4
20260906222642 32 10 4.8 11.3 0.00 0.00 0.00 33 1015.4
20260906222135 32 318 4.8 11.3 0.00 0.00 0.00 32 1015.4
20260906221906 32 4 6.4 14.5 0.00 0.00 0.00 31 1015.5
20260906221403 32 24 8.0 14.5 0.00 0.00 0.00 31 1015.7
20260906220630 32 8 6.4 12.9 0.00 0.00 0.00 32 1015.8
20260906220127 32 22 4.8 12.9 0.00 0.00 0.00 31 1015.9
20260906215625 32 326 4.8 11.3 0.00 0.00 0.00 31 1016.0
20260906215123 32 305 4.8 11.3 0.00 0.00 0.00 31 1016.0
20260906214623 32 94 3.2 11.3 0.00 0.00 0.00 31 1016.1
20260906214122 32 5 1.6 6.4 0.00 0.00 0.00 31 1016.0
20260906213623 32 24 4.8 12.9 0.00 0.00 0.00 32 1016.1
20260906213123 32 160 8.0 16.1 0.00 0.00 0.00 32 1016.2
20260906212852 32 4 9.7 19.3 0.00 0.00 0.00 32 1016.2
20260906212121 32 23 8.0 19.3 0.00 0.00 0.00 32 1016.2
20260906211619 32 22 4.8 14.5 0.00 0.00 0.00 32 1016.2
20260906211119 32 14 6.4 14.5 0.00 0.00 0.00 33 1016.5
20260906210617 32 10 6.4 16.1 0.00 0.00 0.00 33 1016.5
20260906210117 32 22 4.8 16.1 0.00 0.00 0.00 32 1016.6
20260906205616 32 270 4.8 16.1 0.00 0.00 0.00 33 1016.7
20260906205346 32 22 6.4 16.1 0.00 0.00 0.00 31 1016.7
20260906204615 32 14 6.4 16.1 0.00 0.00 0.00 33 1016.7
20260906204113 32 236 4.8 16.1 0.00 0.00 0.00 33 1016.7
20260906203611 32 55 3.2 9.7 0.00 0.00 0.00 34 1016.7
20260906203111 32 1 3.2 9.7 0.00 0.00 0.00 33 1016.7
20260906202610 32 19 3.2 9.7 0.00 0.00 0.00 31 1016.8
20260906202109 32 6 3.2 8.0 0.00 0.00 0.00 34 1017.1
20260906201608 32 12 3.2 12.9 0.00 0.00 0.00 34 1017.1
20260906201604 31 61 4.8 12.9 0.00 0.00 0.00 34 1017.1
20260906200603 31 29 4.8 17.7 0.00 0.00 0.00 34 1017.2
20260906200332 31 5 4.8 17.7 0.00 0.00 0.00 35 1017.3
20260906195600 31 4 4.8 17.7 0.00 0.00 0.00 34 1017.4
20260906195059 31 6 6.4 17.7 0.00 0.00 0.00 34 1017.5
20260906194830 31 11 6.4 12.9 0.00 0.00 0.00 34 1017.4
20260906194056 31 305 4.8 12.9 0.00 0.00 0.00 34 1017.5
20260906193557 31 15 3.2 9.7 0.00 0.00 0.00 34 1017.5
20260906193031 31 21 3.2 9.7 0.00 0.00 0.00 35 1017.5
20260906192529 31 1 4.8 11.3 0.00 0.00 0.00 35 1017.7
20260906192027 30 17 4.8 11.3 0.00 0.00 0.00 36 1017.8
20260906191527 30 15 3.2 11.3 0.00 0.00 0.00 37 1017.8
20260906191027 30 6 4.8 12.9 0.00 0.00 0.00 38 1017.8
20260906190524 30 68 6.4 12.9 0.00 0.00 0.00 39 1017.9
20260906190255 30 22 4.8 12.9 0.00 0.00 0.00 40 1018.0
20260906185523 30 40 4.8 11.3 0.00 0.00 0.00 40 1018.1
20260906185023 29 20 4.8 11.3 0.00 0.00 0.00 40 1018.2
20260906184748 29 22 4.8 11.3 0.00 0.00 0.00 40 1018.5
20260906184017 29 20 4.8 12.9 0.00 0.00 0.00 42 1018.7
20260906183515 29 12 4.8 12.9 0.00 0.00 0.00 41 1018.7
20260906183015 29 12 4.8 11.3 0.00 0.00 0.00 43 1018.8
20260906182513 29 16 3.2 12.9 0.00 0.00 0.00 45 1018.8
20260906182013 28 320 3.2 12.9 0.00 0.00 0.00 46 1018.9
20260906181511 28 10 1.6 8.0 0.00 0.00 0.00 46 1019.1
20260906181011 28 78 1.6 6.4 0.00 0.00 0.00 45 1019.1
20260906180508 28 78 1.6 9.7 0.00 0.00 0.00 48 1019.1
20260906180008 28 31 3.2 9.7 0.00 0.00 0.00 47 1019.2
20260906175507 27 31 4.8 11.3 0.00 0.00 0.00 48 1019.3
20260906175004 27 21 3.2 11.3 0.00 0.00 0.00 49 1019.4
20260906174502 27 313 3.2 9.7 0.00 0.00 0.00 49 1019.5
20260906174234 27 18 4.8 8.0 0.00 0.00 0.00 49 1019.8
20260906173731 27 335 3.2 9.7 0.00 0.00 0.00 50 1019.9
20260906173000 26 3 1.6 9.7 0.00 0.00 0.00 50 1020.0
20260906172503 26 81 1.6 6.4 0.00 0.00 0.00 52 1020.1
20260906172459 26 81 1.6 3.2 0.00 0.00 0.00 52 1020.0
20260906171456 26 81 1.6 6.4 0.00 0.00 0.00 54 1020.2
20260906171227 26 286 3.2 8.0 0.00 0.00 0.00 54 1020.2
20260906170455 25 3 1.6 8.0 0.00 0.00 0.00 54 1020.6
20260906165954 25 5 1.6 8.0 0.00 0.00 0.00 56 1020.7
20260906165457 24 56 3.2 12.9 0.00 0.00 0.00 59 1020.7
20260906165453 25 76 1.6 8.0 0.00 0.00 0.00 58 1020.8
20260906164721 24 6 3.2 12.9 0.00 0.00 0.00 58 1020.8
20260906163950 23 314 4.8 9.7 0.00 0.00 0.00 59 1020.9
20260906163450 23 29 4.8 11.3 0.00 0.00 0.00 59 1020.8
20260906162948 23 17 4.8 11.3 0.00 0.00 0.00 60 1020.8
20260906162720 23 17 3.2 9.7 0.00 0.00 0.00 61 1020.7
20260906161948 23 29 1.6 9.7 0.00 0.00 0.00 61 1020.8
20260906161449 23 297 1.6 8.0 0.00 0.00 0.00 62 1020.8
20260906160948 23 8 3.2 8.0 0.00 0.00 0.00 61 1020.8
20260906160717 23 8 3.2 8.0 0.00 0.00 0.00 62 1020.7
20260906155946 23 308 3.2 9.7 0.00 0.00 0.00 62 1020.7
20260906155444 22 20 3.2 9.7 0.00 0.00 0.00 62 1020.7
20260906154936 22 20 3.2 9.7 0.00 0.00 0.00 64 1020.7
20260906154437 22 322 3.2 9.7 0.00 0.00 0.00 64 1020.7
20260906154206 22 18 3.2 11.3 0.00 0.00 0.00 64 1020.7
20260906153434 22 1 3.2 11.3 0.00 0.00 0.00 66 1020.8
20260906153204 21 5 3.2 8.0 0.00 0.00 0.00 67 1020.7
20260906152430 21 3 3.2 9.7 0.00 0.00 0.00 67 1020.7
20260906151928 21 16 3.2 9.7 0.00 0.00 0.00 67 1020.8
20260906151426 21 5 3.2 9.7 0.00 0.00 0.00 68 1020.8
20260906150919 21 8 3.2 9.7 0.00 0.00 0.00 69 1020.8
20260906150418 20 1 4.8 9.7 0.00 0.00 0.00 70 1020.9
20260906145918 20 313 3.2 9.7 0.00 0.00 0.00 71 1021.0
20260906145416 20 20 3.2 9.7 0.00 0.00 0.00 73 1020.9
20260906144914 19 33 3.2 9.7 0.00 0.00 0.00 74 1020.8
20260906144412 19 21 3.2 8.0 0.00 0.00 0.00 75 1020.8
20260906143911 18 13 3.2 8.0 0.00 0.00 0.00 74 1020.9
20260906143409 18 316 4.8 11.3 0.00 0.00 0.00 75 1020.9
20260906142910 18 329 4.8 11.3 0.00 0.00 0.00 75 1021.0
20260906142410 18 22 4.8 11.3 0.00 0.00 0.00 76 1020.9
20260906141910 18 318 4.8 12.9 0.00 0.00 0.00 77 1020.9
20260906141408 18 16 4.8 12.9 0.00 0.00 0.00 77 1020.8
20260906141140 18 326 4.8 8.0 0.00 0.00 0.00 78 1020.8
20260906141012 17 34 3.2 8.0 0.00 0.00 0.00 78 1020.7
20260906135904 17 268 3.2 9.7 0.00 0.00 0.00 78 1020.7
20260906135404 17 300 3.2 11.3 0.00 0.00 0.00 79 1020.7
20260906135133 17 289 3.2 11.3 0.00 0.00 0.00 79 1020.7
20260906134633 17 305 1.6 8.0 0.00 0.00 0.00 79 1020.7
20260906134134 16 325 1.6 8.0 0.00 0.00 0.00 79 1020.7
20260906133400 16 325 1.6 3.2 0.00 0.00 0.00 79 1020.8
20260906132900 16 326 1.6 6.4 0.00 0.00 0.00 79 1020.7
20260906132359 16 325 1.6 6.4 0.00 0.00 0.00 79 1020.7
20260906131858 16 20 1.6 6.4 0.00 0.00 0.00 79 1020.7
20260906131629 16 20 0.0 6.4 0.00 0.00 0.00 78 1020.6
20260906131126 15 325 0.0 3.2 0.00 0.00 0.00 77 1020.7
20260906130352 15 20 0.0 3.2 0.00 0.00 0.00 77 1020.6
20260906125852 15 327 0.0 1.6 0.00 0.00 0.00 76 1020.7
20260906125350 15 327 0.0 1.6 0.00 0.00 0.00 76 1020.6
20260906124851 15 326 0.0 1.6 0.00 0.00 0.00 76 1020.3
20260906124348 15 327 0.0 0.0 0.00 0.00 0.00 76 1020.3
20260906123848 15 20 0.0 0.0 0.00 0.00 0.00 75 1020.3
20260906123345 15 326 0.0 0.0 0.00 0.00 0.00 75 1020.3
20260906122846 16 20 0.0 0.0 0.00 0.00 0.00 75 1020.5
20260906122346 16 327 0.0 0.0 0.00 0.00 0.00 75 1020.5
20260906121846 16 326 0.0 0.0 0.00 0.00 0.00 75 1020.5
20260906121340 16 327 0.0 0.0 0.00 0.00 0.00 75 1020.2
20260906120840 16 327 0.0 1.6 0.00 0.00 0.00 75 1020.2
20260906120614 16 20 0.0 1.6 0.00 0.00 0.00 74 1020.3
20260906120338 16 327 0.0 1.6 0.00 0.00 0.00 75 1020.2
20260906115336 16 326 0.0 3.2 0.00 0.00 0.00 74 1020.3
20260906114836 16 20 0.0 3.2 0.00 0.00 0.00 74 1020.3
20260906114334 16 326 0.0 3.2 0.00 0.00 0.00 74 1020.2
20260906113834 16 324 1.6 3.2 0.00 0.00 0.00 73 1020.2
20260906113333 16 324 0.0 3.2 0.00 0.00 0.00 73 1020.2
20260906112833 16 20 0.0 3.2 0.00 0.00 0.00 73 1020.3
20260906112330 16 324 0.0 1.6 0.00 0.00 0.00 73 1020.2
20260906111830 16 20 0.0 1.6 0.00 0.00 0.00 73 1020.2
20260906111328 16 324 0.0 3.2 0.00 0.00 0.00 73 1020.1
20260906110826 16 20 0.0 3.2 0.00 0.00 0.00 73 1020.0
20260906110325 16 325 1.6 9.7 0.00 0.00 0.00 73 1020.0
20260906105824 16 20 1.6 9.7 0.00 0.00 0.00 73 1020.0
20260906105324 16 20 0.0 3.2 0.00 0.00 0.00 72 1020.1
20260906104823 16 335 0.0 3.2 0.00 0.00 0.00 72 1020.2
20260906104322 16 3 0.0 3.2 0.00 0.00 0.00 72 1020.0
20260906103822 17 3 0.0 1.6 0.00 0.00 0.00 72 1019.9
20260906103321 17 1 0.0 1.6 0.00 0.00 0.00 72 1019.8
20260906102816 17 20 0.0 1.6 0.00 0.00 0.00 71 1019.9
20260906102314 17 2 0.0 3.2 0.00 0.00 0.00 71 1019.9
20260906101815 17 1 0.0 1.6 0.00 0.00 0.00 70 1019.9
20260906101811 17 1 0.0 3.2 0.00 0.00 0.00 70 1019.9
20260906100812 17 5 0.0 0.0 0.00 0.00 0.00 70 1019.8
20260906100542 17 1 0.0 1.6 0.00 0.00 0.00 68 1019.6
20260906100415 17 2 0.0 1.6 0.00 0.00 0.00 68 1019.8
20260906095312 18 3 0.0 0.0 0.00 0.00 0.00 68 1019.8
20260906094812 18 0 0.0 0.0 0.00 0.00 0.00 67 1019.8
20260906094310 18 1 0.0 1.6 0.00 0.00 0.00 67 1019.9
20260906093809 18 1 0.0 1.6 0.00 0.00 0.00 67 1019.9
20260906093308 18 2 0.0 3.2 0.00 0.00 0.00 65 1020.0
20260906092808 18 7 0.0 3.2 0.00 0.00 0.00 65 1019.8
20260906092246 19 7 0.0 1.6 0.00 0.00 0.00 62 1019.5
20260906092242 18 7 0.0 3.2 0.00 0.00 0.00 64 1019.6
20260906091740 18 7 0.0 3.2 0.00 0.00 0.00 63 1019.5
20260906090738 19 7 0.0 3.2 0.00 0.00 0.00 61 1019.4
20260906090238 19 7 0.0 3.2 0.00 0.00 0.00 60 1019.4
20260906085735 20 7 0.0 3.2 0.00 0.00 0.00 60 1019.3
20260906085236 20 7 1.6 6.4 0.00 0.00 0.00 59 1019.3
20260906084734 20 8 3.2 6.4 0.00 0.00 0.00 57 1019.3
20260906084233 20 331 3.2 9.7 0.00 0.00 0.00 56 1019.2
20260906083728 20 30 3.2 9.7 0.00 0.00 0.00 55 1019.2
20260906083227 20 18 1.6 8.0 0.00 0.00 0.00 53 1019.2
20260906082726 20 2 0.0 6.4 0.00 0.00 0.00 52 1019.2
20260906082226 20 2 1.6 9.7 0.00 0.00 0.00 51 1019.2
20260906081723 20 2 3.2 11.3 0.00 0.00 0.00 51 1018.9
20260906081223 20 31 4.8 14.5 0.00 0.00 0.00 51 1019.1
20260906080722 20 43 6.4 14.5 0.00 0.00 0.00 52 1018.9
20260906080219 20 330 4.8 12.9 0.00 0.00 0.00 52 1018.9
20260906075950 20 317 3.2 9.7 0.00 0.00 0.00 52 1018.9
20260906075220 20 276 1.6 9.7 0.00 0.00 0.00 53 1018.9
20260906074717 20 304 1.6 9.7 0.00 0.00 0.00 53 1018.9
20260906074218 20 4 0.0 0.0 0.00 0.00 0.00 53 1018.9
20260906073715 20 4 0.0 0.0 0.00 0.00 0.00 52 1018.9
20260906073215 20 3 0.0 0.0 0.00 0.00 0.00 52 1018.9
20260906072714 21 3 0.0 0.0 0.00 0.00 0.00 51 1019.1
20260906072218 21 3 0.0 0.0 0.00 0.00 0.00 50 1019.1
20260906072214 21 3 0.0 0.0 0.00 0.00 0.00 50 1019.1
20260906071212 21 4 0.0 0.0 0.00 0.00 0.00 51 1018.9
20260906070710 21 4 0.0 0.0 0.00 0.00 0.00 53 1018.9
20260906070205 21 4 0.0 0.0 0.00 0.00 0.00 53 1018.9
20260906065704 21 4 0.0 0.0 0.00 0.00 0.00 54 1019.1
20260906065204 21 4 0.0 0.0 0.00 0.00 0.00 54 1019.1
20260906064934 21 4 0.0 0.0 0.00 0.00 0.00 53 1019.1
20260906064203 21 4 0.0 0.0 0.00 0.00 0.00 49 1019.2
20260906063702 21 4 0.0 0.0 0.00 0.00 0.00 49 1019.2
20260906063158 21 4 0.0 0.0 0.00 0.00 0.00 48 1019.3
20260906062655 21 4 0.0 0.0 0.00 0.00 0.00 49 1019.4
20260906062156 22 4 0.0 0.0 0.00 0.00 0.00 48 1019.2
20260906061655 22 4 0.0 0.0 0.00 0.00 0.00 50 1019.2
20260906061155 22 4 0.0 0.0 0.00 0.00 0.00 50 1019.2
20260906060655 22 4 0.0 0.0 0.00 0.00 0.00 51 1019.1
20260906060153 22 4 0.0 0.0 0.00 0.00 0.00 52 1018.9
20260906055654 22 4 0.0 0.0 0.00 0.00 0.00 50 1018.7
20260906055424 22 4 0.0 0.0 0.00 0.00 0.00 48 1018.6
20260906055258 22 11 0.0 1.6 0.00 0.00 0.00 47 1018.9
20260906054152 22 245 0.0 1.6 0.00 0.00 0.00 43 1019.2
20260906053649 22 245 1.6 6.4 0.00 0.00 0.00 44 1019.4
20260906053149 22 20 1.6 6.4 0.00 0.00 0.00 43 1019.5
20260906052647 22 257 1.6 6.4 0.00 0.00 0.00 43 1019.8
20260906052145 22 20 0.0 1.6 0.00 0.00 0.00 43 1019.8
20260906051643 22 20 0.0 1.6 0.00 0.00 0.00 44 1019.9
20260906051144 22 20 1.6 3.2 0.00 0.00 0.00 44 1020.0
20260906050644 22 20 1.6 3.2 0.00 0.00 0.00 45 1020.0
20260906050141 22 20 1.6 3.2 0.00 0.00 0.00 46 1019.9
20260906045638 22 7 0.0 3.2 0.00 0.00 0.00 48 1019.5
20260906045139 22 7 0.0 1.6 0.00 0.00 0.00 48 1019.2
20260906044637 22 20 0.0 1.6 0.00 0.00 0.00 47 1019.1
20260906044135 22 20 0.0 3.2 0.00 0.00 0.00 46 1019.2
20260906043635 22 8 0.0 3.2 0.00 0.00 0.00 45 1019.2
20260906043133 22 8 1.6 3.2 0.00 0.00 0.00 44 1019.2
20260906042633 22 20 1.6 3.2 0.00 0.00 0.00 45 1019.1
20260906042131 22 7 1.6 3.2 0.00 0.00 0.00 44 1019.1
20260906041629 22 20 1.6 3.2 0.00 0.00 0.00 44 1018.9
20260906041128 22 20 0.0 3.2 0.00 0.00 0.00 44 1018.9
20260906040627 22 20 0.0 1.6 0.00 0.00 0.00 45 1018.8
20260906040125 22 15 0.0 6.4 0.00 0.00 0.00 44 1018.6
20260906035625 22 9 0.0 6.4 0.00 0.00 0.00 44 1018.5
20260906035124 22 29 0.0 1.6 0.00 0.00 0.00 44 1018.4
20260906034623 22 29 0.0 3.2 0.00 0.00 0.00 45 1018.0
20260906034119 22 28 0.0 3.2 0.00 0.00 0.00 44 1018.0
20260906033617 22 29 0.0 3.2 0.00 0.00 0.00 44 1018.0
20260906033344 22 29 0.0 3.2 0.00 0.00 0.00 45 1017.9
20260906032611 23 29 1.6 6.4 0.00 0.00 0.00 44 1018.0
20260906032111 23 29 1.6 6.4 0.00 0.00 0.00 44 1017.9
20260906031611 23 11 0.0 6.4 0.00 0.00 0.00 44 1017.9
20260906031111 23 20 1.6 6.4 0.00 0.00 0.00 44 1018.0
20260906030609 23 3 1.6 6.4 0.00 0.00 0.00 43 1017.9
20260906030109 23 331 1.6 6.4 0.00 0.00 0.00 42 1017.8
20260906025607 24 330 1.6 6.4 0.00 0.00 0.00 42 1017.7
20260906025107 24 297 1.6 3.2 0.00 0.00 0.00 40 1017.4
20260906024605 25 297 0.0 3.2 0.00 0.00 0.00 39 1017.3
20260906024105 25 297 0.0 0.0 0.00 0.00 0.00 39 1017.4
20260906023603 25 297 0.0 6.4 0.00 0.00 0.00 37 1017.3
20260906023334 25 20 0.0 6.4 0.00 0.00 0.00 37 1017.3
20260906022601 26 297 1.6 4.8 0.00 0.00 0.00 36 1017.2
20260906022055 26 297 1.6 8.0 0.00 0.00 0.00 35 1017.2
20260906021555 26 297 3.2 8.0 0.00 0.00 0.00 34 1017.3
20260906021055 26 318 3.2 9.7 0.00 0.00 0.00 33 1017.3
20260906020555 26 324 3.2 9.7 0.00 0.00 0.00 33 1017.3
20260906020055 26 296 3.2 8.0 0.00 0.00 0.00 33 1017.3
20260906015555 26 276 3.2 8.0 0.00 0.00 0.00 33 1017.3
20260906015055 26 256 3.2 8.0 0.00 0.00 0.00 33 1017.2
20260906014555 27 249 3.2 8.0 0.00 0.00 0.00 33 1017.2
20260906014059 27 313 3.2 8.0 0.00 0.00 0.00 33 1017.1
20260906014055 27 309 1.6 8.0 0.00 0.00 0.00 33 1017.3
20260906013053 27 309 3.2 11.3 0.00 0.00 0.00 31 1017.0
20260906012553 27 315 3.2 11.3 0.00 0.00 0.00 30 1017.0
20260906012053 28 309 3.2 11.3 0.00 0.00 0.00 30 1017.0
20260906011550 28 303 3.2 11.3 0.00 0.00 0.00 30 1017.1
20260906011051 28 20 3.2 8.0 0.00 0.00 0.00 30 1017.0
20260906010820 28 280 3.2 8.0 0.00 0.00 0.00 29 1017.0
20260906010049 28 310 3.2 8.0 0.00 0.00 0.00 29 1017.0
20260906005520 29 269 3.2 9.7 0.00 0.00 0.00 29 1017.1
20260906005021 29 300 3.2 11.3 0.00 0.00 0.00 29 1017.0
20260906004521 29 280 4.8 14.5 0.00 0.00 0.00 28 1017.1
20260906004019 30 311 4.8 16.1 0.00 0.00 0.00 28 1017.1
20260906003519 30 335 6.4 16.1 0.00 0.00 0.00 28 1017.1
20260906003019 30 320 6.4 14.5 0.00 0.00 0.00 27 1017.1
20260906002747 30 328 6.4 17.7 0.00 0.00 0.00 28 1017.0
20260906002017 30 320 4.8 17.7 0.00 0.00 0.00 28 1017.0
20260906001516 30 7 3.2 12.9 0.00 0.00 0.00 28 1017.0
20260906001245 30 330 1.6 8.0 0.00 0.00 0.00 29 1017.0
20260906000515 30 311 3.2 9.7 0.00 0.00 0.00 29 1016.8
20260906000013 30 308 1.6 9.7 0.00 0.00 0.00 28 1016.8
20260905235513 30 299 0.0 4.8 0.00 0.00 0.00 29 1017.0
20260905235007 30 299 0.0 6.4 0.00 0.00 0.00 28 1016.8
20260905234737 31 298 1.6 6.4 0.00 0.00 0.00 27 1016.8
20260905234005 31 297 1.6 9.7 0.00 0.00 0.00 28 1016.8
20260905233505 31 301 3.2 9.7 0.00 0.00 0.00 26 1016.8
20260905233002 31 20 1.6 8.0 0.00 0.00 0.00 26 1016.7
20260905232503 31 328 1.6 9.7 0.00 0.00 0.00 26 1016.7
20260905232231 32 294 3.2 9.7 0.00 0.00 0.00 24 1016.7
20260905231732 32 320 4.8 9.7 0.00 0.00 0.00 23 1016.7
20260905230959 32 302 3.2 8.0 0.00 0.00 0.00 25 1016.6
20260905230459 32 10 3.2 9.7 0.00 0.00 0.00 24 1016.6
20260905225957 32 23 3.2 9.7 0.00 0.00 0.00 25 1016.6
20260905225457 32 20 1.6 8.0 0.00 0.00 0.00 24 1016.5
20260905224956 33 15 1.6 9.7 0.00 0.00 0.00 23 1016.5
20260905224500 33 335 4.8 14.5 0.00 0.00 0.00 21 1016.5
20260905224456 33 8 3.2 9.7 0.00 0.00 0.00 21 1016.5